TimeCDT,TemperatureF,Dew PointF,Humidity,Sea Level PressureIn,VisibilityMPH,Wind Direction,Wind SpeedMPH,Gust SpeedMPH,PrecipitationIn,Events,Conditions,WindDirDegrees,DateUTC
12:55 AM,46.4,44.6,93,29.85,10.0,Calm,Calm,-,N/A,,Clear,0,2012-10-02 05:55:00
1:55 AM,53.6,44.6,72,29.85,10.0,NNW,6.9,-,N/A,,Clear,330,2012-10-02 06:55:00
2:55 AM,52.0,45.0,77,29.86,10.0,NNW,6.9,-,N/A,,Clear,330,2012-10-02 07:55:00
3:55 AM,52.0,46.0,80,29.87,10.0,North,5.8,-,N/A,,Clear,350,2012-10-02 08:55:00
4:55 AM,48.0,45.0,89,29.87,10.0,North,4.6,-,N/A,,Clear,360,2012-10-02 09:55:00
5:55 AM,48.9,46.0,90,29.88,10.0,NNW,4.6,-,N/A,,Clear,330,2012-10-02 10:55:00
6:55 AM,50.0,46.9,89,29.90,10.0,NNW,6.9,-,N/A,,Clear,340,2012-10-02 11:55:00
7:55 AM,51.1,48.0,89,29.91,10.0,North,5.8,-,N/A,,Clear,350,2012-10-02 12:55:00
8:55 AM,55.0,48.9,80,29.92,10.0,North,8.1,-,N/A,,Clear,360,2012-10-02 13:55:00
9:55 AM,59.0,50.0,72,29.94,10.0,North,8.1,-,N/A,,Clear,350,2012-10-02 14:55:00
10:55 AM,63.0,51.1,65,29.94,10.0,North,4.6,-,N/A,,Clear,350,2012-10-02 15:55:00
11:55 AM,68.0,48.9,50,29.93,10.0,NE,4.6,-,N/A,,Clear,40,2012-10-02 16:55:00
12:55 PM,71.1,48.9,45,29.91,10.0,North,5.8,-,N/A,,Clear,10,2012-10-02 17:55:00
1:55 PM,72.0,46.9,41,29.88,10.0,Variable,4.6,-,N/A,,Clear,0,2012-10-02 18:55:00
2:55 PM,73.0,46.0,38,29.86,10.0,Calm,Calm,-,N/A,,Clear,0,2012-10-02 19:55:00
3:55 PM,75.0,46.0,36,29.86,10.0,NNE,6.9,-,N/A,,Clear,20,2012-10-02 20:55:00
4:55 PM,75.0,46.0,36,29.86,10.0,Variable,4.6,-,N/A,,Clear,0,2012-10-02 21:55:00
5:50 PM,71.6,48.2,43,29.86,10.0,North,4.6,-,N/A,,Partly Cloudy,10,2012-10-02 22:50:00
5:55 PM,72.0,46.9,41,29.86,10.0,North,3.5,-,N/A,,Clear,350,2012-10-02 22:55:00
6:55 PM,64.0,48.0,56,29.88,10.0,Calm,Calm,-,N/A,,Clear,0,2012-10-02 23:55:00
7:55 PM,55.4,48.2,77,29.88,10.0,Calm,Calm,-,N/A,,Clear,0,2012-10-03 00:55:00
8:55 PM,54.0,48.0,80,29.91,10.0,Calm,Calm,-,N/A,,Clear,0,2012-10-03 01:55:00
9:55 PM,50.0,46.9,89,29.92,10.0,Calm,Calm,-,N/A,,Clear,0,2012-10-03 02:55:00
10:55 PM,48.9,46.9,93,29.92,10.0,Calm,Calm,-,N/A,,Clear,0,2012-10-03 03:55:00
11:55 PM,48.0,46.9,96,29.92,10.0,Calm,Calm,-,N/A,,Clear,0,2012-10-03 04:55:00